Time,TemperatureF,DewpointF,PressureIn,WindDirection,WindDirectionDegrees,WindSpeedMPH,WindSpeedGustMPH,Humidity,HourlyPrecipIn,Conditions,Clouds,dailyrainin,SoftwareType,DateUTC
2013-06-10 00:00:00,68.5,61.4,30.11,SSE,150,0.0,0.0,78,0.00,,---,0.00,VWS V14.01,2013-06-10 04:00:00,
2013-06-10 00:01:00,68.5,61.4,30.11,SSE,150,0.0,0.0,78,0.00,,---,0.00,VWS V14.01,2013-06-10 04:01:00,
2013-06-10 00:02:00,68.5,61.4,30.11,SSE,150,0.0,0.0,78,0.00,,---,0.00,VWS V14.01,2013-06-10 04:02:00,
2013-06-10 00:03:00,68.4,61.3,30.11,SSE,150,0.0,0.0,78,0.00,,---,0.00,VWS V14.01,2013-06-10 04:03:00,
2013-06-10 00:08:00,68.3,61.2,30.11,SSE,150,0.0,0.0,78,0.00,,---,0.00,VWS V14.01,2013-06-10 04:08:00,
2013-06-10 00:13:00,68.3,61.2,30.11,SSE,150,0.0,0.0,78,0.00,,---,0.00,VWS V14.01,2013-06-10 04:13:00,
2013-06-10 00:18:00,68.2,61.5,30.11,SSE,150,0.0,0.0,79,0.00,,---,0.00,VWS V14.01,2013-06-10 04:18:00,
2013-06-10 00:23:00,68.1,61.3,30.11,SSE,150,0.0,0.0,79,0.00,,---,0.00,VWS V14.01,2013-06-10 04:23:00,
2013-06-10 00:28:00,68.0,61.2,30.11,SSE,150,0.0,0.0,79,0.00,,---,0.00,VWS V14.01,2013-06-10 04:28:00,
2013-06-10 00:30:00,68.0,61.6,30.11,SSE,150,0.0,0.0,80,0.00,,---,0.00,VWS V14.01,2013-06-10 04:30:00,
2013-06-10 00:33:00,67.9,61.5,30.11,SSE,150,0.0,0.0,80,0.00,,---,0.00,VWS V14.01,2013-06-10 04:33:00,
2013-06-10 00:38:00,67.8,61.4,30.11,SSE,150,0.0,0.0,80,0.00,,---,0.00,VWS V14.01,2013-06-10 04:38:00,
2013-06-10 00:43:00,67.8,61.4,30.11,SSE,150,0.0,0.0,80,0.00,,---,0.00,VWS V14.01,2013-06-10 04:43:00,
2013-06-10 00:48:00,67.9,61.5,30.11,SSE,150,0.0,0.0,80,0.00,,---,0.00,VWS V14.01,2013-06-10 04:48:00,
2013-06-10 00:54:00,67.9,61.2,30.11,SSE,150,0.0,0.0,79,0.00,,---,0.00,VWS V14.01,2013-06-10 04:54:00,
2013-06-10 00:59:00,68.0,61.2,30.11,SSE,150,0.0,0.0,79,0.00,,---,0.00,VWS V14.01,2013-06-10 04:59:00,
2013-06-10 01:00:00,68.0,61.2,30.11,SSE,150,0.0,0.0,79,0.00,,---,0.00,VWS V14.01,2013-06-10 05:00:00,
2013-06-10 01:04:00,68.0,61.2,30.11,SSE,150,0.0,0.0,79,0.00,,---,0.00,VWS V14.01,2013-06-10 05:04:00,
2013-06-10 01:09:00,68.0,61.6,30.11,SSE,150,0.0,0.0,80,0.00,,---,0.00,VWS V14.01,2013-06-10 05:09:00,
2013-06-10 01:14:00,67.9,61.5,30.11,SSE,150,0.0,0.0,80,0.00,,---,0.00,VWS V14.01,2013-06-10 05:14:00,
2013-06-10 01:19:00,67.7,61.3,30.11,SSE,150,0.0,0.0,80,0.00,,---,0.00,VWS V14.01,2013-06-10 05:19:00,
2013-06-10 01:24:00,67.5,61.1,30.11,SSE,150,0.0,0.0,80,0.00,,---,0.00,VWS V14.01,2013-06-10 05:24:00,
2013-06-10 01:29:00,67.4,61.4,30.11,SSE,150,0.0,0.0,81,0.00,,---,0.00,VWS V14.01,2013-06-10 05:29:00,
2013-06-10 01:30:00,67.3,61.3,30.11,SSE,150,0.0,0.0,81,0.00,,---,0.00,VWS V14.01,2013-06-10 05:30:00,
2013-06-10 01:34:00,67.2,61.2,30.10,SSE,150,0.0,0.0,81,0.00,,---,0.00,VWS V14.01,2013-06-10 05:34:00,
2013-06-10 01:39:00,67.1,61.1,30.10,SSE,150,0.0,0.0,81,0.00,,---,0.00,VWS V14.01,2013-06-10 05:39:00,
2013-06-10 01:45:00,67.0,61.3,30.11,SSE,150,0.0,0.0,82,0.00,,---,0.00,VWS V14.01,2013-06-10 05:45:00,
2013-06-10 01:50:00,66.9,61.2,30.11,SSE,150,0.0,0.0,82,0.00,,---,0.00,VWS V14.01,2013-06-10 05:50:00,
2013-06-10 01:55:00,66.8,61.1,30.11,SSE,150,0.0,0.0,82,0.00,,---,0.00,VWS V14.01,2013-06-10 05:55:00,
2013-06-10 02:00:00,66.8,61.1,30.11,SSE,150,0.0,0.0,82,0.00,,---,0.00,VWS V14.01,2013-06-10 06:00:00,
2013-06-10 02:05:00,66.8,61.1,30.11,SSE,150,0.0,0.0,82,0.00,,---,0.00,VWS V14.01,2013-06-10 06:05:00,
2013-06-10 02:10:00,66.8,61.5,30.10,SSE,150,0.0,0.0,83,0.00,,---,0.00,VWS V14.01,2013-06-10 06:10:00,
2013-06-10 02:15:00,66.8,61.5,30.10,SSE,150,0.0,0.0,83,0.00,,---,0.00,VWS V14.01,2013-06-10 06:15:00,
2013-06-10 02:20:00,66.7,61.4,30.10,SSE,150,0.0,0.0,83,0.00,,---,0.00,VWS V14.01,2013-06-10 06:20:00,
2013-06-10 02:25:00,66.6,61.6,30.09,SSE,150,0.0,0.0,84,0.00,,---,0.00,VWS V14.01,2013-06-10 06:25:00,
2013-06-10 02:30:00,66.4,61.8,30.09,SSE,150,0.0,0.0,85,0.00,,---,0.00,VWS V14.01,2013-06-10 06:30:00,
2013-06-10 02:35:00,66.0,61.4,30.10,SSE,150,0.0,0.0,85,0.00,,---,0.00,VWS V14.01,2013-06-10 06:35:00,
2013-06-10 02:40:00,65.6,61.3,30.09,SSE,150,0.0,0.0,86,0.00,,---,0.00,VWS V14.01,2013-06-10 06:40:00,
2013-06-10 02:45:00,65.2,61.2,30.09,SSE,150,0.0,0.0,87,0.00,,---,0.00,VWS V14.01,2013-06-10 06:45:00,
2013-06-10 02:50:00,65.0,61.0,30.09,SSE,150,0.0,0.0,87,0.00,,---,0.00,VWS V14.01,2013-06-10 06:50:00,
2013-06-10 02:55:00,64.8,61.2,30.09,SSE,150,0.0,0.0,88,0.00,,---,0.00,VWS V14.01,2013-06-10 06:55:00,
2013-06-10 03:00:00,64.7,61.1,30.09,SSE,150,0.0,0.0,88,0.00,,---,0.00,VWS V14.01,2013-06-10 07:00:00,
2013-06-10 03:05:00,64.6,61.3,30.09,SSE,150,0.0,0.0,89,0.00,,---,0.00,VWS V14.01,2013-06-10 07:05:00,
2013-06-10 03:10:00,64.6,61.0,30.09,SSE,150,0.0,0.0,88,0.00,,---,0.00,VWS V14.01,2013-06-10 07:10:00,
2013-06-10 03:16:00,64.7,61.1,30.09,SSE,150,0.0,0.0,88,0.00,,---,0.00,VWS V14.01,2013-06-10 07:16:00,
2013-06-10 03:21:00,64.7,61.1,30.09,SSE,150,0.0,0.0,88,0.00,,---,0.00,VWS V14.01,2013-06-10 07:21:00,
2013-06-10 03:26:00,64.7,61.1,30.08,SSE,150,0.0,0.0,88,0.00,,---,0.00,VWS V14.01,2013-06-10 07:26:00,
2013-06-10 03:30:00,64.7,61.1,30.08,SSE,150,0.0,0.0,88,0.00,,---,0.00,VWS V14.01,2013-06-10 07:30:00,
2013-06-10 03:31:00,64.7,61.1,30.09,SSE,150,0.0,0.0,88,0.00,,---,0.00,VWS V14.01,2013-06-10 07:31:00,
2013-06-10 03:36:00,64.5,61.2,30.09,SSE,150,0.0,0.0,89,0.00,,---,0.00,VWS V14.01,2013-06-10 07:36:00,
2013-06-10 03:41:00,64.4,61.1,30.09,SSE,150,0.0,0.0,89,0.00,,---,0.00,VWS V14.01,2013-06-10 07:41:00,
2013-06-10 03:46:00,64.3,61.0,30.08,SSE,150,0.0,0.0,89,0.00,,---,0.00,VWS V14.01,2013-06-10 07:46:00,
2013-06-10 03:52:00,64.1,61.1,30.09,SSE,150,0.0,0.0,90,0.00,,---,0.00,VWS V14.01,2013-06-10 07:52:00,
2013-06-10 03:57:00,64.0,61.0,30.09,SSE,150,0.0,0.0,90,0.00,,---,0.00,VWS V14.01,2013-06-10 07:57:00,
2013-06-10 04:00:00,64.0,61.0,30.08,SSE,150,0.0,0.0,90,0.00,,---,0.00,VWS V14.01,2013-06-10 08:00:00,
2013-06-10 04:02:00,63.9,60.9,30.08,SSE,150,0.0,0.0,90,0.00,,---,0.00,VWS V14.01,2013-06-10 08:02:00,
2013-06-10 04:07:00,64.0,61.0,30.08,SSE,150,0.0,0.0,90,0.00,,---,0.00,VWS V14.01,2013-06-10 08:07:00,
2013-06-10 04:12:00,64.0,61.0,30.08,SSE,150,0.0,0.0,90,0.00,,---,0.00,VWS V14.01,2013-06-10 08:12:00,
2013-06-10 04:17:00,64.1,61.1,30.08,SSE,150,0.0,0.0,90,0.00,,---,0.00,VWS V14.01,2013-06-10 08:17:00,
2013-06-10 04:22:00,64.1,61.4,30.08,SSE,150,0.0,0.0,91,0.00,,---,0.00,VWS V14.01,2013-06-10 08:22:00,
2013-06-10 04:27:00,64.2,61.5,30.08,SSE,150,0.0,0.0,91,0.00,,---,0.00,VWS V14.01,2013-06-10 08:27:00,
2013-06-10 04:30:00,64.2,61.5,30.08,SSE,150,0.0,0.0,91,0.00,,---,0.00,VWS V14.01,2013-06-10 08:30:00,
2013-06-10 04:32:00,64.2,61.5,30.08,SSE,150,0.0,0.0,91,0.00,,---,0.00,VWS V14.01,2013-06-10 08:32:00,
2013-06-10 04:37:00,64.2,61.5,30.08,SSE,150,0.0,0.0,91,0.00,,---,0.00,VWS V14.01,2013-06-10 08:37:00,
2013-06-10 04:42:00,64.1,61.4,30.08,SSE,150,0.0,0.0,91,0.00,,---,0.00,VWS V14.01,2013-06-10 08:42:00,
2013-06-10 04:48:00,64.1,61.4,30.08,SSE,150,0.0,0.0,91,0.00,,---,0.00,VWS V14.01,2013-06-10 08:48:00,
2013-06-10 04:53:00,64.1,61.4,30.08,SSE,150,0.0,0.0,91,0.00,,---,0.00,VWS V14.01,2013-06-10 08:53:00,
2013-06-10 04:58:00,64.1,61.4,30.08,SSE,150,0.0,0.0,91,0.00,,---,0.00,VWS V14.01,2013-06-10 08:58:00,
2013-06-10 05:00:00,64.0,61.3,30.08,SSE,150,0.0,0.0,91,0.00,,---,0.00,VWS V14.01,2013-06-10 09:00:00,
2013-06-10 05:03:00,64.0,61.3,30.08,SSE,150,0.0,0.0,91,0.00,,---,0.00,VWS V14.01,2013-06-10 09:03:00,
2013-06-10 05:08:00,64.0,61.3,30.08,SSE,150,0.0,0.0,91,0.00,,---,0.00,VWS V14.01,2013-06-10 09:08:00,
2013-06-10 05:13:00,64.0,61.6,30.08,SSE,150,0.0,0.0,92,0.00,,---,0.00,VWS V14.01,2013-06-10 09:13:00,
2013-06-10 05:18:00,63.9,61.5,30.08,SSE,150,0.0,0.0,92,0.00,,---,0.00,VWS V14.01,2013-06-10 09:18:00,
2013-06-10 05:23:00,63.9,61.5,30.08,SSE,150,0.0,0.0,92,0.00,,---,0.00,VWS V14.01,2013-06-10 09:23:00,
2013-06-10 05:28:00,63.8,61.4,30.08,SSE,150,0.0,0.0,92,0.00,,---,0.00,VWS V14.01,2013-06-10 09:28:00,
2013-06-10 05:30:00,63.8,61.4,30.08,SSE,150,0.0,0.0,92,0.00,,---,0.00,VWS V14.01,2013-06-10 09:30:00,
2013-06-10 05:33:00,63.8,61.7,30.08,SSE,150,0.0,0.0,93,0.00,,---,0.00,VWS V14.01,2013-06-10 09:33:00,
2013-06-10 05:38:00,63.7,61.6,30.08,SSE,150,0.0,0.0,93,0.00,,---,0.00,VWS V14.01,2013-06-10 09:38:00,
2013-06-10 05:44:00,63.7,61.6,30.08,SSE,150,0.0,0.0,93,0.00,,---,0.00,VWS V14.01,2013-06-10 09:44:00,
2013-06-10 05:49:00,63.7,61.6,30.08,SSE,150,0.0,0.0,93,0.00,,---,0.00,VWS V14.01,2013-06-10 09:49:00,
2013-06-10 05:54:00,63.6,61.5,30.08,SSE,150,0.0,0.0,93,0.00,,---,0.00,VWS V14.01,2013-06-10 09:54:00,
2013-06-10 05:59:00,63.6,61.5,30.08,SSE,150,0.0,0.0,93,0.00,,---,0.00,VWS V14.01,2013-06-10 09:59:00,
2013-06-10 06:00:00,63.6,61.5,30.08,SSE,150,0.0,0.0,93,0.00,,---,0.00,VWS V14.01,2013-06-10 10:00:00,
2013-06-10 06:04:00,63.6,61.5,30.08,SSE,150,0.0,0.0,93,0.00,,---,0.00,VWS V14.01,2013-06-10 10:04:00,
2013-06-10 06:09:00,63.5,61.4,30.08,SSE,150,0.0,0.0,93,0.00,,---,0.00,VWS V14.01,2013-06-10 10:09:00,
2013-06-10 06:14:00,63.5,61.4,30.08,SSE,150,0.0,0.0,93,0.00,,---,0.00,VWS V14.01,2013-06-10 10:14:00,
2013-06-10 06:19:00,63.5,61.4,30.08,SSE,150,0.0,0.0,93,0.00,,---,0.00,VWS V14.01,2013-06-10 10:19:00,
2013-06-10 06:24:00,63.5,61.4,30.08,SSE,150,0.0,1.0,93,0.00,,---,0.00,VWS V14.01,2013-06-10 10:24:00,
2013-06-10 06:29:00,63.4,61.3,30.08,SSE,150,0.0,1.0,93,0.00,,---,0.00,VWS V14.01,2013-06-10 10:29:00,
2013-06-10 06:30:00,63.4,61.3,30.08,SSE,150,0.0,1.0,93,0.00,,---,0.00,VWS V14.01,2013-06-10 10:30:00,
2013-06-10 06:34:00,63.5,61.4,30.08,SSE,150,0.0,0.0,93,0.00,,---,0.00,VWS V14.01,2013-06-10 10:34:00,
2013-06-10 06:39:00,63.5,61.4,30.08,SSE,150,0.0,0.0,93,0.00,,---,0.00,VWS V14.01,2013-06-10 10:39:00,
2013-06-10 06:44:00,63.5,61.4,30.08,SSE,150,0.0,0.0,93,0.00,,---,0.00,VWS V14.01,2013-06-10 10:44:00,
2013-06-10 06:49:00,63.5,61.4,30.08,SSE,150,0.0,0.0,93,0.00,,---,0.00,VWS V14.01,2013-06-10 10:49:00,
2013-06-10 06:54:00,63.5,61.4,30.08,SSE,150,0.0,0.0,93,0.00,,---,0.00,VWS V14.01,2013-06-10 10:54:00,
2013-06-10 06:59:00,63.5,61.8,30.09,SSE,150,0.0,0.0,94,0.00,,---,0.00,VWS V14.01,2013-06-10 10:59:00,
2013-06-10 07:00:00,63.5,61.8,30.09,SSE,150,0.0,0.0,94,0.00,,---,0.00,VWS V14.01,2013-06-10 11:00:00,
2013-06-10 07:05:00,63.5,61.8,30.09,SSE,150,0.0,0.0,94,0.00,,---,0.00,VWS V14.01,2013-06-10 11:05:00,
2013-06-10 07:10:00,63.4,61.7,30.09,SSE,150,0.0,0.0,94,0.00,,---,0.00,VWS V14.01,2013-06-10 11:10:00,
2013-06-10 07:15:00,63.3,61.5,30.08,SSE,150,0.0,0.0,94,0.00,,---,0.00,VWS V14.01,2013-06-10 11:15:00,
2013-06-10 07:20:00,63.1,61.7,30.08,SSE,150,0.0,0.0,95,0.00,,---,0.00,VWS V14.01,2013-06-10 11:20:00,
2013-06-10 07:25:00,63.1,61.7,30.08,SSE,150,0.0,0.0,95,0.01,,---,0.01,VWS V14.01,2013-06-10 11:25:00,
2013-06-10 07:30:00,63.0,61.5,30.08,SSE,150,0.0,0.0,95,0.01,,---,0.01,VWS V14.01,2013-06-10 11:30:00,
2013-06-10 07:35:00,63.1,61.9,30.08,SSE,150,0.0,0.0,96,0.02,,---,0.02,VWS V14.01,2013-06-10 11:35:00,
2013-06-10 07:40:00,63.1,61.9,30.08,SSE,150,0.0,0.0,96,0.02,,---,0.02,VWS V14.01,2013-06-10 11:40:00,
2013-06-10 07:45:00,63.2,62.3,30.07,SSE,150,1.0,1.0,97,0.03,,---,0.03,VWS V14.01,2013-06-10 11:45:00,
2013-06-10 07:50:00,63.2,62.3,30.07,SSE,150,0.0,1.0,97,0.04,,---,0.04,VWS V14.01,2013-06-10 11:50:00,
2013-06-10 07:55:00,63.2,62.3,30.07,SSE,150,0.0,1.0,97,0.04,,---,0.04,VWS V14.01,2013-06-10 11:55:00,
2013-06-10 08:00:00,63.2,62.3,30.07,NE,40,0.0,0.0,97,0.04,,---,0.04,VWS V14.01,2013-06-10 12:00:00,
2013-06-10 08:05:00,63.2,62.3,30.07,NE,41,0.0,1.0,97,0.04,,---,0.04,VWS V14.01,2013-06-10 12:05:00,
2013-06-10 08:11:00,63.2,62.3,30.07,NE,41,0.0,1.0,97,0.04,,---,0.04,VWS V14.01,2013-06-10 12:11:00,
2013-06-10 08:16:00,63.1,62.2,30.07,NE,41,0.0,1.0,97,0.05,,---,0.05,VWS V14.01,2013-06-10 12:16:00,
2013-06-10 08:21:00,63.0,62.4,30.08,NE,41,0.0,1.0,98,0.06,,---,0.06,VWS V14.01,2013-06-10 12:21:00,
2013-06-10 08:26:00,63.0,62.4,30.08,NE,41,0.0,1.0,98,0.07,,---,0.07,VWS V14.01,2013-06-10 12:26:00,
2013-06-10 08:30:00,63.1,62.5,30.08,NE,41,0.0,1.0,98,0.09,,---,0.09,VWS V14.01,2013-06-10 12:30:00,
2013-06-10 08:31:00,63.1,62.5,30.08,NE,41,0.0,0.0,98,0.08,,---,0.09,VWS V14.01,2013-06-10 12:31:00,
2013-06-10 08:36:00,63.2,62.6,30.07,NE,41,0.0,0.0,98,0.10,,---,0.11,VWS V14.01,2013-06-10 12:36:00,
2013-06-10 08:41:00,63.2,62.6,30.07,NE,41,0.0,0.0,98,0.11,,---,0.12,VWS V14.01,2013-06-10 12:41:00,
2013-06-10 08:46:00,63.2,62.6,30.07,NE,41,0.0,0.0,98,0.13,,---,0.14,VWS V14.01,2013-06-10 12:46:00,
2013-06-10 08:51:00,63.3,62.7,30.07,NE,41,0.0,0.0,98,0.14,,---,0.15,VWS V14.01,2013-06-10 12:51:00,
2013-06-10 08:57:00,63.4,62.8,30.08,NE,41,0.0,1.0,98,0.15,,---,0.16,VWS V14.01,2013-06-10 12:57:00,
2013-06-10 09:00:00,63.5,63.2,30.08,NE,41,0.0,1.0,99,0.16,,---,0.17,VWS V14.01,2013-06-10 13:00:00,
2013-06-10 09:02:00,63.6,63.3,30.08,NE,41,0.0,0.0,99,0.13,,---,0.17,VWS V14.01,2013-06-10 13:02:00,
2013-06-10 09:07:00,63.6,63.3,30.09,NE,41,0.0,0.0,99,0.15,,---,0.19,VWS V14.01,2013-06-10 13:07:00,
2013-06-10 09:12:00,63.6,63.3,30.09,NE,41,0.0,0.0,99,0.16,,---,0.20,VWS V14.01,2013-06-10 13:12:00,
2013-06-10 09:17:00,63.5,63.2,30.08,NE,41,0.0,0.0,99,0.16,,---,0.20,VWS V14.01,2013-06-10 13:17:00,
2013-06-10 09:22:00,63.5,63.2,30.08,NE,41,0.0,0.0,99,0.16,,---,0.20,VWS V14.01,2013-06-10 13:22:00,
2013-06-10 09:27:00,63.5,63.2,30.07,NE,41,0.0,0.0,99,0.16,,---,0.20,VWS V14.01,2013-06-10 13:27:00,
2013-06-10 09:30:00,63.5,63.2,30.07,NE,41,0.0,0.0,99,0.16,,---,0.20,VWS V14.01,2013-06-10 13:30:00,
2013-06-10 09:32:00,63.5,63.2,30.07,NE,41,0.0,1.0,99,0.11,,---,0.20,VWS V14.01,2013-06-10 13:32:00,
2013-06-10 09:37:00,63.4,63.1,30.07,NE,41,0.0,1.0,99,0.16,,---,0.25,VWS V14.01,2013-06-10 13:37:00,
2013-06-10 09:42:00,63.3,63.0,30.06,NE,41,0.0,1.0,99,0.17,,---,0.26,VWS V14.01,2013-06-10 13:42:00,
2013-06-10 09:47:00,63.3,63.0,30.06,NE,41,0.0,1.0,99,0.17,,---,0.26,VWS V14.01,2013-06-10 13:47:00,
2013-06-10 09:52:00,63.4,63.1,30.06,ENE,70,0.0,1.0,99,0.18,,---,0.27,VWS V14.01,2013-06-10 13:52:00,
2013-06-10 09:57:00,63.4,63.1,30.05,NE,47,0.0,2.0,99,0.19,,---,0.28,VWS V14.01,2013-06-10 13:57:00,
2013-06-10 10:00:00,63.4,63.1,30.05,NE,53,0.0,3.0,99,0.20,,---,0.29,VWS V14.01,2013-06-10 14:00:00,
2013-06-10 10:02:00,63.3,63.0,30.05,NE,53,0.0,0.0,99,0.12,,---,0.29,VWS V14.01,2013-06-10 14:02:00,
2013-06-10 10:07:00,63.5,63.2,30.05,ENE,67,0.0,1.0,99,0.12,,---,0.29,VWS V14.01,2013-06-10 14:07:00,
2013-06-10 10:12:00,63.5,63.2,30.05,NE,49,1.0,1.0,99,0.12,,---,0.29,VWS V14.01,2013-06-10 14:12:00,
2013-06-10 10:17:00,63.6,63.3,30.05,NE,41,0.0,1.0,99,0.12,,---,0.29,VWS V14.01,2013-06-10 14:17:00,
2013-06-10 10:22:00,63.6,63.3,30.04,ENE,67,0.0,1.0,99,0.12,,---,0.29,VWS V14.01,2013-06-10 14:22:00,
2013-06-10 10:27:00,63.6,63.3,30.04,ENE,60,0.0,2.0,99,0.12,,---,0.29,VWS V14.01,2013-06-10 14:27:00,
2013-06-10 10:30:00,63.6,63.3,30.04,NNE,13,0.0,2.0,99,0.12,,---,0.29,VWS V14.01,2013-06-10 14:30:00,
2013-06-10 10:33:00,63.6,63.3,30.04,NE,37,0.0,2.0,99,0.09,,---,0.29,VWS V14.01,2013-06-10 14:33:00,
2013-06-10 10:38:00,63.6,63.3,30.04,NE,42,0.0,2.0,99,0.09,,---,0.29,VWS V14.01,2013-06-10 14:38:00,
2013-06-10 10:43:00,63.6,63.3,30.04,NE,42,0.0,2.0,99,0.09,,---,0.29,VWS V14.01,2013-06-10 14:43:00,
2013-06-10 10:48:00,63.6,63.3,30.04,NE,45,0.0,2.0,99,0.09,,---,0.29,VWS V14.01,2013-06-10 14:48:00,
2013-06-10 10:53:00,63.8,63.8,30.04,ENE,61,0.0,2.0,100,0.09,,---,0.29,VWS V14.01,2013-06-10 14:53:00,
2013-06-10 10:58:00,63.6,63.3,30.03,ENE,57,0.0,2.0,99,0.09,,---,0.29,VWS V14.01,2013-06-10 14:58:00,
2013-06-10 11:00:00,63.6,63.3,30.04,NE,46,0.0,2.0,99,0.09,,---,0.29,VWS V14.01,2013-06-10 15:00:00,
2013-06-10 11:03:00,63.7,63.4,30.04,NNE,31,0.0,1.0,99,0.00,,---,0.29,VWS V14.01,2013-06-10 15:03:00,
2013-06-10 11:08:00,63.9,63.9,30.03,NE,39,0.0,1.0,100,0.00,,---,0.29,VWS V14.01,2013-06-10 15:08:00,
2013-06-10 11:13:00,64.0,63.7,30.03,NNE,24,0.0,1.0,99,0.00,,---,0.29,VWS V14.01,2013-06-10 15:13:00,
2013-06-10 11:18:00,64.0,63.7,30.03,NE,46,0.0,1.0,99,0.00,,---,0.29,VWS V14.01,2013-06-10 15:18:00,
2013-06-10 11:23:00,64.0,63.7,30.03,NE,46,0.0,1.0,99,0.00,,---,0.29,VWS V14.01,2013-06-10 15:23:00,
2013-06-10 11:28:00,64.0,63.7,30.03,NE,46,0.0,1.0,99,0.00,,---,0.29,VWS V14.01,2013-06-10 15:28:00,
2013-06-10 11:30:00,64.0,63.7,30.03,NE,44,2.0,2.0,99,0.00,,---,0.29,VWS V14.01,2013-06-10 15:30:00,
2013-06-10 11:33:00,63.9,63.6,30.03,NE,44,0.0,2.0,99,0.00,,---,0.29,VWS V14.01,2013-06-10 15:33:00,
2013-06-10 11:39:00,63.7,63.4,30.03,NE,34,0.0,2.0,99,0.00,,---,0.29,VWS V14.01,2013-06-10 15:39:00,
2013-06-10 11:44:00,63.6,63.3,30.02,NE,38,0.0,2.0,99,0.00,,---,0.29,VWS V14.01,2013-06-10 15:44:00,
2013-06-10 11:49:00,63.8,63.5,30.03,NE,38,0.0,2.0,99,0.00,,---,0.29,VWS V14.01,2013-06-10 15:49:00,
2013-06-10 11:54:00,63.8,63.5,30.02,NE,42,0.0,2.0,99,0.00,,---,0.29,VWS V14.01,2013-06-10 15:54:00,
2013-06-10 11:59:00,63.8,63.5,30.02,NE,44,0.0,2.0,99,0.00,,---,0.29,VWS V14.01,2013-06-10 15:59:00,
2013-06-10 12:00:00,63.8,63.5,30.02,NE,55,0.0,2.0,99,0.00,,---,0.29,VWS V14.01,2013-06-10 16:00:00,
2013-06-10 12:04:00,63.8,63.5,30.02,ENE,74,0.0,1.0,99,0.00,,---,0.29,VWS V14.01,2013-06-10 16:04:00,
2013-06-10 12:09:00,63.8,63.5,30.02,ENE,72,0.0,1.0,99,0.00,,---,0.29,VWS V14.01,2013-06-10 16:09:00,
2013-06-10 12:14:00,63.8,63.5,30.02,NE,38,0.0,1.0,99,0.00,,---,0.29,VWS V14.01,2013-06-10 16:14:00,
2013-06-10 12:19:00,63.7,63.4,30.01,NE,49,1.0,1.0,99,0.00,,---,0.29,VWS V14.01,2013-06-10 16:19:00,
2013-06-10 12:24:00,63.7,63.4,30.01,ENE,63,0.0,2.0,99,0.00,,---,0.29,VWS V14.01,2013-06-10 16:24:00,
2013-06-10 12:29:00,63.6,63.3,30.02,NE,46,0.0,2.0,99,0.00,,---,0.29,VWS V14.01,2013-06-10 16:29:00,
2013-06-10 12:30:00,63.6,63.3,30.02,NE,46,0.0,2.0,99,0.00,,---,0.29,VWS V14.01,2013-06-10 16:30:00,
2013-06-10 12:34:00,63.6,63.3,30.01,NE,49,0.0,0.0,99,0.00,,---,0.29,VWS V14.01,2013-06-10 16:34:00,
2013-06-10 12:40:00,63.6,63.3,30.01,NE,50,0.0,2.0,99,0.00,,---,0.29,VWS V14.01,2013-06-10 16:40:00,
2013-06-10 12:45:00,63.5,63.2,30.01,NNE,17,0.0,2.0,99,0.00,,---,0.29,VWS V14.01,2013-06-10 16:45:00,
2013-06-10 12:50:00,63.5,63.2,30.01,NE,49,0.0,2.0,99,0.00,,---,0.29,VWS V14.01,2013-06-10 16:50:00,
2013-06-10 12:55:00,63.6,63.3,30.00,NNE,27,0.0,2.0,99,0.00,,---,0.29,VWS V14.01,2013-06-10 16:55:00,
2013-06-10 13:00:00,63.6,63.3,30.00,North,360,0.0,2.0,99,0.00,,---,0.29,VWS V14.01,2013-06-10 17:00:00,
2013-06-10 13:05:00,63.6,63.3,30.00,NE,49,0.0,2.0,99,0.00,,---,0.29,VWS V14.01,2013-06-10 17:05:00,
2013-06-10 13:10:00,63.7,63.4,30.00,NNE,33,0.0,2.0,99,0.01,,---,0.30,VWS V14.01,2013-06-10 17:10:00,
2013-06-10 13:15:00,63.7,63.4,30.00,NE,53,1.0,2.0,99,0.01,,---,0.30,VWS V14.01,2013-06-10 17:15:00,
2013-06-10 13:20:00,63.6,63.3,29.99,NE,47,1.0,2.0,99,0.01,,---,0.30,VWS V14.01,2013-06-10 17:20:00,
2013-06-10 13:25:00,63.6,63.3,29.99,ENE,68,0.0,2.0,99,0.01,,---,0.30,VWS V14.01,2013-06-10 17:25:00,
2013-06-10 13:30:00,63.6,63.3,29.99,ENE,59,0.0,2.0,99,0.01,,---,0.30,VWS V14.01,2013-06-10 17:30:00,
2013-06-10 13:35:00,63.6,63.3,29.99,NE,50,0.0,2.0,99,0.01,,---,0.30,VWS V14.01,2013-06-10 17:35:00,
2013-06-10 13:40:00,63.6,63.3,29.98,ENE,63,0.0,2.0,99,0.02,,---,0.31,VWS V14.01,2013-06-10 17:40:00,
2013-06-10 13:45:00,63.6,63.3,29.98,ENE,66,0.0,3.0,99,0.02,,---,0.31,VWS V14.01,2013-06-10 17:45:00,
2013-06-10 13:50:00,63.6,63.3,29.98,East,79,0.0,3.0,99,0.02,,---,0.31,VWS V14.01,2013-06-10 17:50:00,
2013-06-10 13:55:00,63.5,63.2,29.98,ENE,63,0.0,3.0,99,0.02,,---,0.31,VWS V14.01,2013-06-10 17:55:00,
2013-06-10 14:00:00,63.4,63.1,29.97,NE,51,0.0,3.0,99,0.02,,---,0.31,VWS V14.01,2013-06-10 18:00:00,
2013-06-10 14:01:00,63.4,63.1,29.98,NE,51,0.0,0.0,99,0.02,,---,0.31,VWS V14.01,2013-06-10 18:01:00,
2013-06-10 14:06:00,63.4,63.1,29.97,NE,53,0.0,1.0,99,0.02,,---,0.31,VWS V14.01,2013-06-10 18:06:00,
2013-06-10 14:11:00,63.3,63.3,29.97,ENE,64,1.0,2.0,100,0.02,,---,0.31,VWS V14.01,2013-06-10 18:11:00,
2013-06-10 14:16:00,63.2,63.2,29.97,NW,319,1.0,2.0,100,0.02,,---,0.31,VWS V14.01,2013-06-10 18:16:00,
2013-06-10 14:21:00,63.2,63.2,29.97,NE,51,1.0,2.0,100,0.02,,---,0.31,VWS V14.01,2013-06-10 18:21:00,
2013-06-10 14:26:00,63.2,63.2,29.97,NNE,30,0.0,3.0,100,0.02,,---,0.31,VWS V14.01,2013-06-10 18:26:00,
2013-06-10 14:30:00,63.2,63.2,29.96,NNE,13,0.0,3.0,100,0.02,,---,0.31,VWS V14.01,2013-06-10 18:30:00,
2013-06-10 14:31:00,63.2,63.2,29.96,NNE,13,0.0,1.0,100,0.01,,---,0.31,VWS V14.01,2013-06-10 18:31:00,
2013-06-10 14:36:00,63.1,63.1,29.95,NNE,28,0.0,3.0,100,0.02,,---,0.32,VWS V14.01,2013-06-10 18:36:00,
2013-06-10 14:41:00,63.0,62.7,29.95,NE,39,0.0,3.0,99,0.02,,---,0.32,VWS V14.01,2013-06-10 18:41:00,
2013-06-10 14:46:00,63.0,63.0,29.95,NE,41,0.0,3.0,100,0.03,,---,0.33,VWS V14.01,2013-06-10 18:46:00,
2013-06-10 14:51:00,62.9,62.9,29.95,North,360,0.0,3.0,100,0.04,,---,0.34,VWS V14.01,2013-06-10 18:51:00,
2013-06-10 14:56:00,62.9,62.9,29.96,NNE,28,0.0,3.0,100,0.06,,---,0.36,VWS V14.01,2013-06-10 18:56:00,
2013-06-10 15:00:00,62.8,62.8,29.96,ENE,68,0.0,3.0,100,0.08,,---,0.38,VWS V14.01,2013-06-10 19:00:00,
2013-06-10 15:01:00,62.8,62.8,29.96,ENE,68,0.0,0.0,100,0.07,,---,0.38,VWS V14.01,2013-06-10 19:01:00,
2013-06-10 15:06:00,62.8,62.8,29.96,ENE,65,1.0,1.0,100,0.15,,---,0.46,VWS V14.01,2013-06-10 19:06:00,
2013-06-10 15:12:00,62.7,62.7,29.95,ENE,66,0.0,2.0,100,0.18,,---,0.49,VWS V14.01,2013-06-10 19:12:00,
2013-06-10 15:17:00,62.6,62.6,29.95,ENE,61,1.0,2.0,100,0.22,,---,0.53,VWS V14.01,2013-06-10 19:17:00,
2013-06-10 15:22:00,62.5,62.5,29.94,NNE,15,0.0,2.0,100,0.25,,---,0.56,VWS V14.01,2013-06-10 19:22:00,
2013-06-10 15:27:00,62.3,62.3,29.94,NNE,15,0.0,3.0,100,0.27,,---,0.58,VWS V14.01,2013-06-10 19:27:00,
2013-06-10 15:30:00,62.3,62.3,29.94,NE,43,1.0,3.0,100,0.27,,---,0.58,VWS V14.01,2013-06-10 19:30:00,
2013-06-10 15:32:00,62.3,62.3,29.94,ENE,78,0.0,1.0,100,0.27,,---,0.58,VWS V14.01,2013-06-10 19:32:00,
2013-06-10 15:37:00,62.4,62.4,29.93,NE,36,0.0,2.0,100,0.28,,---,0.59,VWS V14.01,2013-06-10 19:37:00,
2013-06-10 15:42:00,62.5,62.5,29.94,NE,38,0.0,2.0,100,0.28,,---,0.59,VWS V14.01,2013-06-10 19:42:00,
2013-06-10 15:47:00,62.6,62.6,29.93,NE,47,0.0,3.0,100,0.28,,---,0.59,VWS V14.01,2013-06-10 19:47:00,
2013-06-10 15:52:00,62.5,62.5,29.93,NE,40,0.0,3.0,100,0.28,,---,0.59,VWS V14.01,2013-06-10 19:52:00,
2013-06-10 15:57:00,62.5,62.5,29.93,NE,36,0.0,3.0,100,0.28,,---,0.59,VWS V14.01,2013-06-10 19:57:00,
2013-06-10 16:00:00,62.5,62.5,29.92,ENE,57,0.0,3.0,100,0.28,,---,0.59,VWS V14.01,2013-06-10 20:00:00,
2013-06-10 16:02:00,62.5,62.5,29.92,NE,56,0.0,1.0,100,0.21,,---,0.59,VWS V14.01,2013-06-10 20:02:00,
2013-06-10 16:07:00,62.6,62.6,29.92,NE,42,0.0,1.0,100,0.21,,---,0.59,VWS V14.01,2013-06-10 20:07:00,
2013-06-10 16:13:00,62.6,62.6,29.92,ENE,65,0.0,1.0,100,0.21,,---,0.59,VWS V14.01,2013-06-10 20:13:00,
2013-06-10 16:18:00,62.6,62.6,29.92,NNE,18,0.0,3.0,100,0.21,,---,0.59,VWS V14.01,2013-06-10 20:18:00,
2013-06-10 16:23:00,62.6,62.6,29.92,NE,56,0.0,3.0,100,0.21,,---,0.59,VWS V14.01,2013-06-10 20:23:00,
2013-06-10 16:28:00,62.6,62.6,29.92,NE,46,0.0,3.0,100,0.21,,---,0.59,VWS V14.01,2013-06-10 20:28:00,
2013-06-10 16:30:00,62.6,62.6,29.91,NE,51,0.0,3.0,100,0.21,,---,0.59,VWS V14.01,2013-06-10 20:30:00,
2013-06-10 16:33:00,62.6,62.6,29.91,NE,49,0.0,1.0,100,0.01,,---,0.59,VWS V14.01,2013-06-10 20:33:00,
2013-06-10 16:38:00,62.5,62.5,29.91,NNE,31,0.0,2.0,100,0.01,,---,0.59,VWS V14.01,2013-06-10 20:38:00,
2013-06-10 16:43:00,62.5,62.5,29.92,NE,37,0.0,2.0,100,0.03,,---,0.61,VWS V14.01,2013-06-10 20:43:00,
2013-06-10 16:48:00,62.5,62.5,29.91,NE,53,0.0,2.0,100,0.07,,---,0.65,VWS V14.01,2013-06-10 20:48:00,
2013-06-10 16:53:00,62.4,62.4,29.91,North,11,0.0,2.0,100,0.09,,---,0.67,VWS V14.01,2013-06-10 20:53:00,
2013-06-10 16:58:00,62.4,62.4,29.91,North,360,0.0,2.0,100,0.10,,---,0.68,VWS V14.01,2013-06-10 20:58:00,
2013-06-10 17:00:00,62.4,62.4,29.91,North,5,0.0,2.0,100,0.10,,---,0.68,VWS V14.01,2013-06-10 21:00:00,
2013-06-10 17:03:00,62.4,62.4,29.91,East,79,0.0,1.0,100,0.10,,---,0.69,VWS V14.01,2013-06-10 21:03:00,
2013-06-10 17:08:00,62.3,62.3,29.91,NE,55,0.0,2.0,100,0.10,,---,0.69,VWS V14.01,2013-06-10 21:08:00,
2013-06-10 17:13:00,62.3,62.3,29.90,North,9,0.0,2.0,100,0.11,,---,0.70,VWS V14.01,2013-06-10 21:13:00,
2013-06-10 17:18:00,62.3,62.3,29.90,NNE,31,0.0,2.0,100,0.11,,---,0.70,VWS V14.01,2013-06-10 21:18:00,
2013-06-10 17:23:00,62.2,62.2,29.90,North,9,0.0,2.0,100,0.12,,---,0.71,VWS V14.01,2013-06-10 21:23:00,
2013-06-10 17:28:00,62.3,62.3,29.90,ENE,69,0.0,2.0,100,0.13,,---,0.72,VWS V14.01,2013-06-10 21:28:00,
2013-06-10 17:30:00,62.3,62.3,29.89,ENE,67,0.0,2.0,100,0.13,,---,0.72,VWS V14.01,2013-06-10 21:30:00,
2013-06-10 17:34:00,62.2,62.2,29.89,NE,37,0.0,1.0,100,0.13,,---,0.72,VWS V14.01,2013-06-10 21:34:00,
2013-06-10 17:39:00,62.2,62.2,29.89,NE,54,0.0,2.0,100,0.14,,---,0.73,VWS V14.01,2013-06-10 21:39:00,
2013-06-10 17:44:00,62.2,62.2,29.88,ENE,61,0.0,2.0,100,0.15,,---,0.74,VWS V14.01,2013-06-10 21:44:00,
2013-06-10 17:49:00,62.2,62.2,29.88,ENE,74,0.0,2.0,100,0.17,,---,0.76,VWS V14.01,2013-06-10 21:49:00,
2013-06-10 17:54:00,62.1,62.1,29.88,ENE,70,0.0,2.0,100,0.17,,---,0.76,VWS V14.01,2013-06-10 21:54:00,
2013-06-10 17:59:00,62.1,62.1,29.88,NE,44,0.0,2.0,100,0.17,,---,0.76,VWS V14.01,2013-06-10 21:59:00,
2013-06-10 18:00:00,62.1,62.1,29.88,ENE,59,0.0,2.0,100,0.17,,---,0.76,VWS V14.01,2013-06-10 22:00:00,
2013-06-10 18:04:00,62.1,62.1,29.88,ENE,71,0.0,1.0,100,0.08,,---,0.76,VWS V14.01,2013-06-10 22:04:00,
2013-06-10 18:09:00,62.2,62.2,29.88,ENE,65,0.0,1.0,100,0.08,,---,0.76,VWS V14.01,2013-06-10 22:09:00,
2013-06-10 18:14:00,62.2,62.2,29.87,ENE,57,1.0,1.0,100,0.08,,---,0.76,VWS V14.01,2013-06-10 22:14:00,
2013-06-10 18:19:00,62.2,62.2,29.87,NE,51,0.0,1.0,100,0.08,,---,0.76,VWS V14.01,2013-06-10 22:19:00,
2013-06-10 18:24:00,62.2,62.2,29.86,ENE,66,0.0,1.0,100,0.08,,---,0.76,VWS V14.01,2013-06-10 22:24:00,
2013-06-10 18:29:00,62.2,62.2,29.86,NNE,19,0.0,1.0,100,0.08,,---,0.76,VWS V14.01,2013-06-10 22:29:00,
2013-06-10 18:30:00,62.2,62.2,29.86,NNE,21,1.0,1.0,100,0.08,,---,0.76,VWS V14.01,2013-06-10 22:30:00,
2013-06-10 18:34:00,62.2,62.2,29.86,NNE,26,0.0,2.0,100,0.04,,---,0.76,VWS V14.01,2013-06-10 22:34:00,
2013-06-10 18:39:00,62.1,62.1,29.86,NE,45,0.0,2.0,100,0.04,,---,0.76,VWS V14.01,2013-06-10 22:39:00,
2013-06-10 18:44:00,62.2,62.2,29.86,ENE,69,0.0,2.0,100,0.04,,---,0.76,VWS V14.01,2013-06-10 22:44:00,
2013-06-10 18:50:00,62.2,62.2,29.86,NNE,32,2.0,2.0,100,0.04,,---,0.76,VWS V14.01,2013-06-10 22:50:00,
2013-06-10 18:55:00,62.3,62.3,29.86,WNW,293,0.0,2.0,100,0.04,,---,0.76,VWS V14.01,2013-06-10 22:55:00,
2013-06-10 19:00:00,62.2,62.2,29.86,NE,38,0.0,3.0,100,0.04,,---,0.76,VWS V14.01,2013-06-10 23:00:00,
2013-06-10 19:05:00,62.2,62.2,29.85,NE,36,0.0,2.0,100,0.00,,---,0.76,VWS V14.01,2013-06-10 23:05:00,
2013-06-10 19:10:00,62.3,62.3,29.85,NE,45,0.0,2.0,100,0.00,,---,0.76,VWS V14.01,2013-06-10 23:10:00,
2013-06-10 19:15:00,62.3,62.3,29.85,NE,34,0.0,2.0,100,0.00,,---,0.76,VWS V14.01,2013-06-10 23:15:00,
2013-06-10 19:20:00,62.4,62.4,29.85,North,5,0.0,2.0,100,0.00,,---,0.76,VWS V14.01,2013-06-10 23:20:00,
2013-06-10 19:25:00,62.4,62.4,29.84,NE,47,0.0,2.0,100,0.00,,---,0.76,VWS V14.01,2013-06-10 23:25:00,
2013-06-10 19:30:00,62.5,62.5,29.84,NE,43,0.0,0.0,100,0.00,,---,0.76,VWS V14.01,2013-06-10 23:30:00,
2013-06-10 19:35:00,62.5,62.5,29.84,NE,43,0.0,1.0,100,0.00,,---,0.76,VWS V14.01,2013-06-10 23:35:00,
2013-06-10 19:40:00,62.6,62.6,29.83,NE,43,0.0,1.0,100,0.00,,---,0.76,VWS V14.01,2013-06-10 23:40:00,
2013-06-10 19:45:00,62.7,62.7,29.83,NE,43,0.0,1.0,100,0.00,,---,0.76,VWS V14.01,2013-06-10 23:45:00,
2013-06-10 19:50:00,62.7,62.7,29.83,NE,43,0.0,1.0,100,0.00,,---,0.76,VWS V14.01,2013-06-10 23:50:00,
2013-06-10 19:55:00,62.9,62.9,29.83,NE,43,0.0,1.0,100,0.00,,---,0.76,VWS V14.01,2013-06-10 23:55:00,
2013-06-10 20:00:00,62.9,62.9,29.82,NE,43,0.0,1.0,100,0.00,,---,0.76,VWS V14.01,2013-06-11 00:00:00,
2013-06-10 20:01:00,62.9,62.9,29.82,NE,43,0.0,2.0,100,0.00,,---,0.76,VWS V14.01,2013-06-11 00:01:00,
2013-06-10 20:06:00,63.0,63.0,29.82,East,99,0.0,2.0,100,0.00,,---,0.76,VWS V14.01,2013-06-11 00:06:00,
2013-06-10 20:11:00,63.1,63.1,29.82,ENE,74,0.0,2.0,100,0.00,,---,0.76,VWS V14.01,2013-06-11 00:11:00,
2013-06-10 20:16:00,63.1,63.1,29.81,ENE,74,0.0,2.0,100,0.00,,---,0.76,VWS V14.01,2013-06-11 00:16:00,
2013-06-10 20:21:00,63.1,63.1,29.81,ENE,74,0.0,2.0,100,0.00,,---,0.76,VWS V14.01,2013-06-11 00:21:00,
2013-06-10 20:26:00,63.3,63.3,29.81,ENE,75,0.0,2.0,100,0.00,,---,0.76,VWS V14.01,2013-06-11 00:26:00,
2013-06-10 20:30:00,63.4,63.4,29.81,ENE,60,0.0,2.0,100,0.00,,---,0.76,VWS V14.01,2013-06-11 00:30:00,
2013-06-10 20:31:00,63.4,63.4,29.81,ENE,60,0.0,0.0,100,0.00,,---,0.76,VWS V14.01,2013-06-11 00:31:00,
2013-06-10 20:36:00,63.6,63.6,29.80,ENE,60,0.0,0.0,100,0.00,,---,0.76,VWS V14.01,2013-06-11 00:36:00,
2013-06-10 20:41:00,63.8,63.8,29.80,ENE,60,0.0,0.0,100,0.00,,---,0.76,VWS V14.01,2013-06-11 00:41:00,
2013-06-10 20:46:00,64.0,64.0,29.80,ENE,60,0.0,0.0,100,0.00,,---,0.76,VWS V14.01,2013-06-11 00:46:00,
2013-06-10 20:52:00,64.2,64.2,29.80,ENE,60,0.0,0.0,100,0.00,,---,0.76,VWS V14.01,2013-06-11 00:52:00,
2013-06-10 20:57:00,64.3,64.3,29.80,ENE,59,0.0,0.0,100,0.00,,---,0.76,VWS V14.01,2013-06-11 00:57:00,
2013-06-10 21:00:00,64.3,64.3,29.80,ENE,60,0.0,1.0,100,0.00,,---,0.76,VWS V14.01,2013-06-11 01:00:00,
2013-06-10 21:02:00,64.3,64.3,29.80,ENE,60,0.0,0.0,100,0.00,,---,0.76,VWS V14.01,2013-06-11 01:02:00,
2013-06-10 21:07:00,64.4,64.4,29.80,ENE,59,0.0,0.0,100,0.00,,---,0.76,VWS V14.01,2013-06-11 01:07:00,
2013-06-10 21:12:00,64.6,64.6,29.80,ENE,60,0.0,0.0,100,0.00,,---,0.76,VWS V14.01,2013-06-11 01:12:00,
2013-06-10 21:17:00,64.6,64.6,29.80,ENE,60,0.0,0.0,100,0.00,,---,0.76,VWS V14.01,2013-06-11 01:17:00,
2013-06-10 21:22:00,64.6,64.6,29.80,ENE,60,0.0,1.0,100,0.00,,---,0.76,VWS V14.01,2013-06-11 01:22:00,
2013-06-10 21:27:00,64.6,64.6,29.80,ENE,60,0.0,1.0,100,0.00,,---,0.76,VWS V14.01,2013-06-11 01:27:00,
2013-06-10 21:30:00,64.6,64.6,29.80,ENE,60,0.0,1.0,100,0.00,,---,0.76,VWS V14.01,2013-06-11 01:30:00,
2013-06-10 21:32:00,64.6,64.6,29.80,ENE,59,0.0,0.0,100,0.00,,---,0.76,VWS V14.01,2013-06-11 01:32:00,
2013-06-10 21:37:00,64.7,64.7,29.81,ENE,60,0.0,0.0,100,0.00,,---,0.76,VWS V14.01,2013-06-11 01:37:00,
2013-06-10 21:42:00,64.7,64.7,29.80,ENE,60,0.0,1.0,100,0.00,,---,0.76,VWS V14.01,2013-06-11 01:42:00,
2013-06-10 21:47:00,64.7,64.7,29.81,ENE,60,0.0,1.0,100,0.00,,---,0.76,VWS V14.01,2013-06-11 01:47:00,
2013-06-10 21:52:00,64.8,64.8,29.80,ENE,59,0.0,1.0,100,0.00,,---,0.76,VWS V14.01,2013-06-11 01:52:00,
2013-06-10 21:57:00,64.9,64.9,29.80,ENE,60,0.0,1.0,100,0.00,,---,0.76,VWS V14.01,2013-06-11 01:57:00,
2013-06-10 22:00:00,64.9,64.9,29.80,ENE,60,0.0,1.0,100,0.00,,---,0.76,VWS V14.01,2013-06-11 02:00:00,
2013-06-10 22:02:00,64.9,64.9,29.80,ENE,60,0.0,0.0,100,0.00,,---,0.76,VWS V14.01,2013-06-11 02:02:00,
2013-06-10 22:08:00,65.0,65.0,29.80,ENE,59,0.0,0.0,100,0.00,,---,0.76,VWS V14.01,2013-06-11 02:08:00,
2013-06-10 22:13:00,65.1,65.1,29.80,ENE,60,0.0,0.0,100,0.00,,---,0.76,VWS V14.01,2013-06-11 02:13:00,
2013-06-10 22:18:00,65.3,65.3,29.81,ENE,59,0.0,0.0,100,0.00,,---,0.76,VWS V14.01,2013-06-11 02:18:00,
2013-06-10 22:23:00,65.4,65.4,29.80,ENE,59,0.0,0.0,100,0.00,,---,0.76,VWS V14.01,2013-06-11 02:23:00,
2013-06-10 22:28:00,65.4,65.4,29.80,ENE,60,0.0,0.0,100,0.00,,---,0.76,VWS V14.01,2013-06-11 02:28:00,
2013-06-10 22:30:00,65.5,65.5,29.80,ENE,60,0.0,0.0,100,0.00,,---,0.76,VWS V14.01,2013-06-11 02:30:00,
2013-06-10 22:33:00,65.5,65.5,29.80,ENE,60,0.0,0.0,100,0.00,,---,0.76,VWS V14.01,2013-06-11 02:33:00,
2013-06-10 23:00:00,66.0,66.0,29.79,ENE,60,0.0,0.0,100,0.00,,---,0.76,VWS V14.01,2013-06-11 03:00:00,
2013-06-10 23:54:00,67.6,67.6,29.75,SSW,195,0.0,0.0,100,0.00,,---,0.76,VWS V14.01,2013-06-11 03:54:00,
2013-06-10 23:59:00,67.6,67.6,29.75,NE,43,0.0,0.0,100,0.00,,---,0.76,VWS V14.01,2013-06-11 03:59:00,